Phu Quoc Airport


Codes: VVPQ/PQC
Name: Phu Quoc Airport
City: Duong Dong
Country: Vietnam
Elevation: 23 ft.
Wikipedia:

Photos at Phu Quoc Airport


   Photos courtesy of SpottingLog. You can add your own sightings and photos by signing up for a free trial today.



No photos found.

Weather at Phu Quoc Airport


Time (UTC)DescriptionTempratureWindCloud coverageVisibilityPressureHumidity
16-Jun-2024 12:00Light Rain29°C7 mph, W60%10000m1006hPa77%
16-Jun-2024 15:00Scattered Clouds29°C7 mph, SW47%10000m1008hPa80%
16-Jun-2024 18:00Light Rain28°C9 mph, SW68%10000m1008hPa80%
16-Jun-2024 21:00Light Rain28°C11 mph, W84%10000m1007hPa77%
17-Jun-2024 00:00Overcast Clouds29°C11 mph, W91%10000m1009hPa77%
17-Jun-2024 03:00Light Rain30°C11 mph, W91%10000m1010hPa69%
17-Jun-2024 06:00Light Rain31°C11 mph, W93%10000m1008hPa64%
17-Jun-2024 09:00Light Rain30°C11 mph, W100%10000m1007hPa68%
17-Jun-2024 12:00Light Rain28°C11 mph, W100%10000m1009hPa78%
17-Jun-2024 15:00Moderate Rain27°C13 mph, W100%10000m1010hPa84%
17-Jun-2024 18:00Light Rain28°C13 mph, W100%10000m1009hPa80%
17-Jun-2024 21:00Overcast Clouds28°C11 mph, W100%10000m1008hPa80%
18-Jun-2024 00:00Light Rain28°C11 mph, W100%10000m1009hPa82%
18-Jun-2024 03:00Moderate Rain27°C9 mph, W100%10000m1010hPa84%
18-Jun-2024 06:00Light Rain29°C13 mph, W100%10000m1008hPa77%
18-Jun-2024 09:00Overcast Clouds29°C11 mph, W100%10000m1006hPa77%
18-Jun-2024 12:00Overcast Clouds28°C11 mph, W98%10000m1007hPa83%
18-Jun-2024 15:00Overcast Clouds28°C9 mph, W100%10000m1008hPa82%
18-Jun-2024 18:00Light Rain28°C11 mph, W88%10000m1007hPa80%
18-Jun-2024 21:00Overcast Clouds28°C11 mph, W92%10000m1007hPa78%
19-Jun-2024 00:00Light Rain29°C13 mph, W96%10000m1008hPa75%
19-Jun-2024 03:00Overcast Clouds30°C13 mph, W100%10000m1009hPa66%
19-Jun-2024 06:00Overcast Clouds31°C16 mph, W89%10000m1007hPa64%
19-Jun-2024 09:00Overcast Clouds30°C13 mph, W100%10000m1005hPa68%
19-Jun-2024 12:00Broken Clouds29°C11 mph, W68%10000m1007hPa75%
19-Jun-2024 15:00Scattered Clouds29°C13 mph, W46%10000m1008hPa76%
19-Jun-2024 18:00Broken Clouds28°C13 mph, W65%10000m1007hPa75%
19-Jun-2024 21:00Scattered Clouds28°C13 mph, W49%10000m1006hPa75%
20-Jun-2024 00:00Scattered Clouds29°C13 mph, W45%10000m1008hPa77%
20-Jun-2024 03:00Light Rain30°C16 mph, W80%10000m1009hPa71%
20-Jun-2024 06:00Light Rain30°C16 mph, W79%10000m1007hPa68%
20-Jun-2024 09:00Light Rain29°C16 mph, W69%10000m1006hPa72%
20-Jun-2024 12:00Light Rain28°C13 mph, W47%10000m1007hPa79%
20-Jun-2024 15:00Light Rain28°C13 mph, W100%10000m1009hPa76%
20-Jun-2024 18:00Light Rain28°C16 mph, W100%10000m1008hPa76%
20-Jun-2024 21:00Overcast Clouds28°C16 mph, W95%10000m1007hPa73%
21-Jun-2024 00:00Overcast Clouds29°C18 mph, W97%10000m1008hPa72%
21-Jun-2024 03:00Overcast Clouds29°C18 mph, W100%10000m1008hPa71%
21-Jun-2024 06:00Moderate Rain28°C18 mph, W97%10000m1007hPa77%
21-Jun-2024 09:00Moderate Rain28°C16 mph, W95%8833m1006hPa83%